Tracking 19709 objects as of 19-Jun-2019
HD Live streaming from Space Station
objects crossing your sky now

DELTA 1 DEB

Track DELTA 1 DEB now!
10-day predictions


NORAD ID: 7053
Int'l Code: 1973-086AV
Perigee: 1,442.7 km
Apogee: 1,516.2 km
Inclination: 102.0 °
Period: 115.4 minutes
Semi major axis: 7850 km
RCS: 0.1024 m2 (medium)
Launch date: November 6, 1973
Source: United States (US)
Launch site: AIR FORCE WESTERN TEST RANGE (AFWTR)

Note: This is SATELLITE DEBRIS
aabbcc
Your satellite tracking list
Your tracking list is empty




NASA's NSSDC Master Catalog

Two Line Element Set (TLE):
1  7053U 73086AV  19169.79981172 +.00000072 +00000-0 +78397-3 0  9995
2  7053 101.9740 235.8910 0046834 122.5889 349.9777 12.48132998075383
Source of the keplerian elements: AFSPC